Location: *
(32.3758°S, 63.1185°E)
Time: 16:50:38
(UTC+00:00)

Lacrosse 4 Rocket - Pass Details

Date: 02 June 2023
Orbit: 530 x 606 km, 68.0° (Epoch: 23 September)

Event Time Altitude Azimuth Distance (km) Brightness Sun altitude
Rises 13:30:36 0° 16° (NNE) 2,789 5.0 -8.7°
Reaches altitude 10° 13:33:29 10° 37° (NE) 1,917 3.9 -9.3°
Maximum altitude 13:36:11 16° 76° (ENE) 1,566 3.1 -9.8°
Enters shadow 13:37:56 13° 103° (ESE) 1,740 3.2 -10.2°
